Location: Harbor View
(36.2448°N, 86.5797°W)
Time: 08:49:35
(UTC+00:00)

COSMO-SKYMED 1 - Pass Details

Date: 06 March 2021
Orbit: 621 x 623 km, 97.9° (Epoch: 13 April)

Event Time Altitude Azimuth Distance (km) Brightness Sun altitude
Rises 10:07:28 0° 133° (SE) 2,892 6.5 -25.3°
Reaches altitude 10° 10:10:04 10° 117° (ESE) 1,990 5.8 -24.8°
Maximum altitude 10:13:18 21° 69° (ENE) 1,415 5.2 -24.2°
Drops below altitude 10° 10:16:32 10° 20° (NNE) 2,000 5.5 -23.5°
Sets 10:19:09 0° 5° (N) 2,911 6.2 -23.0°
